Location: Ajisawe
(8.4333°N, 4.3833°E)
Time: 00:42:23
(UTC+00:00)

Cosmos 405 - Pass Details

Date: 07 June 2020
Orbit: 451 x 464 km, 81.3° (Epoch: 13 July)

Event Time Altitude Azimuth Distance (km) Brightness Sun altitude
Rises 04:30:25 0° 358° (N) 2,480 7.0 -12.8°
Reaches altitude 10° 04:32:29 10° 0° (N) 1,607 6.0 -12.3°
Maximum altitude 04:35:59 71° 85° (E) 491 3.2 -11.5°
Drops below altitude 10° 04:39:30 10° 169° (S) 1,609 5.6 -10.8°
Sets 04:41:35 0° 171° (S) 2,484 6.5 -10.3°
